TIANMU-1 17

Last updated on Thu Jul 03 2025 00:02:22 GMT+0000 (Coordinated Universal Time)

1 58702U 24004C 25183.57432503 .00004438 00000+0 19552-3 0 9993 2 58702 97.4634 5.8015 0006787 139.0516 221.1231 15.22319492 82504
UTC large
Height (km)
Speed (km/s)
/
Latitude / Longitude
Inclination (degrees)
Orbital Period (minutes)
Azimuth
Elevation
Range (km)
Doppler Factor

Next 0 passes for location: London (51.5072 / 0.1276)

Sorry there are no passes over London.